COSMOS 1275 DEB

Satellite information

Favourite Embed

Satellite Type and Status

DEBRISIN ORBIT

Key statistics

Satellite COSMOS 1275 DEB at a glance.

Uptime

16264

Days in orbit

Revolutions

≈ 13.7

Per day

Orbit

LEO

Low Earth Orbit

Inclination

83.0

Latest

Satellite identification and parameters

Extended collection of information and parameters for COSMOS 1275 DEB.

Object identification

Identified? True

Debris? True

Object name: COSMOS 1275 DEB

International designator: 1981-053TH

Object number (NORAD): 42193

Object ID (CCSDS): 42193

Country: COMMONWEALTH OF INDEPENDENT STATES (CIS)

Current information (Y/N): Y

RCS size: SMALL

Orbital parameters

Period: 105.276 minutes

Inclination: 82.9552 deg

SMA: 7385.5 km

Apoapsis: 1104.598 km

Periapsis: 910.132 km

RAAN: 11.6998 deg

Eccentricy: 0.01316542

Argument of periapsis: 118.7465 deg

Mean anomaly: 242.6988 deg

Mean motion: 13.67832458 rev/day

Mean motion (dot): 0.00000749 rev/day2

B* drag term: 0.00081525339 1/REarth

Two-line elements (TLE)

Creation date: Dec. 11, 2025, 7:14 p.m.

Reference frame: TEME

Reference center: EARTH

Epoch: Dec. 11, 2025, 11:48 a.m. UTC

TLE line 0: 0 COSMOS 1275 DEB

TLE line 1: 1 42193U 81053TH 25345.49228042 .00000749 00000-0 81525-3 0 9990

TLE line 2: 2 42193 82.9552 11.6998 0131654 118.7465 242.6988 13.67832458589107

Live tracking on map

Real-time ground track for satellite COSMOS 1275 DEB.

In-orbit conjunctions

A list of the most updated potential collisions computed for object COSMOS 1275 DEB.

Target Orbit TCA Probability of collision Miss distance Type
COSMOS 2123 LEO 2024-12-14 11:19:32 0.0005699042 316.0 (m) PAYLOAD
COSMOS 2334 LEO 2024-10-31 06:55:12 0.0001748466 460.0 (m) PAYLOAD

Associated space launch

Navigation satellite providing location information for the Tsiklon-B navigation system

COSMOS 1275 DEB was lifted into orbit during the mission ‘Kosmos-3M | Parus 27’, on board a Kosmos-3M space rocket.

The launch took place on June 4, 1981, 3:41 p.m. from 132/2.

For more information about the launch, click the button.

Launch to space Kosmos-3M | Parus 27
Kosmos-3M | Parus 27

Agency: N/A

Status: Launch Successful

Launch date: June 4, 1981, 3:41 p.m. UTC

Rocket: Kosmos-3M

Launch pad: 132/2

Location: Plesetsk Cosmodrome, Russian Federation

...

Latest news about this satellite

There are no fresh news available about this satellite. Check back as we update our databases every day.


Newsletter sign-up

Weekly statistics, charts and insights to help you stay on top of the space industry.